Weather History for 62318 - April, 2013

Change the Weather History Date:

Monday, April 22, 2013

  Actual Average Record
Temperature  
Mean Temperature 65 °F -  
Max Temperature 70 °F 76 °F - ()
Min Temperature 60 °F 60 °F - ()
Growing Degree Days 15 (Base 50)    
Moisture  
Dew Point 51 °F    
Average Humidity 59    
Maximum Humidity 73    
Minimum Humidity 41    
Precipitation  
Precipitation 0.00 in 0.00 in - ()
Sea Level Pressure  
Sea Level Pressure 29.96 in    
Wind  
Wind Speed 10 mph ()    
Max Wind Speed 15 mph    
Max Gust Speed -    
Visibility 6.2 miles    
Events      
T = Trace of Precipitation, MM = Missing Value Source: Averaged Metar Reports

Daily Weather History Graph

Daily Weather History Graph

Search for Another Location

Airport or City:

Trip Planner

Search our weather history database for the weather conditions in past years. The results will help you decide how hot, cold, wet, or windy it might be!

Date:

Astronomy

Apr. 22, 2013 Rise Set
Actual Time 5:24 AM EET 6:33 PM EET
Civil Twilight 4:59 AM EET 6:58 PM EET
Nautical Twilight 4:29 AM EET 7:28 PM EET
Astronomical Twilight 3:58 AM EET 7:59 PM EET
Moon 3:13 PM EET (4/22) 2:53 AM EET (4/22)
Length of Visible Light 13h 59m
Length of Day
13h 08m
Waxing Gibbous, 86% of the Moon is Illuminated
Apr 22
Waxing Gibbous
Apr 25
Full
May 2
Last Quarter
May 10
New
May 18
First Quarter

Hourly Weather History & Observations

Time (EET) Temp. Dew Point Humidity Pressure Visibility Wind Dir Wind Speed Gust Speed Precip Events Conditions
12:00 AM 62.6 °F 50.0 °F 63% 29.95 in 6.2 mi WNW 6.9 mph - N/A   Scattered Clouds
1:00 AM 62.6 °F 50.0 °F 63% 29.95 in 6.2 mi NW 13.8 mph - N/A   Scattered Clouds
2:00 AM 62 °F 49 °F 53% 29.94 in 6 mi WNW 13.8 mph - -   Scattered Clouds
2:00 AM 62.6 °F 50.0 °F 63% 29.92 in 6.2 mi WNW 13.8 mph - N/A   Partly Cloudy
3:00 AM 60.8 °F 50.0 °F 68% 29.92 in 6.2 mi NW 12.7 mph - N/A   Partly Cloudy
4:00 AM 60.8 °F 50.0 °F 68% 29.92 in 6.2 mi NW 11.5 mph - N/A   Partly Cloudy
5:00 AM 60.8 °F 50.0 °F 68% 29.92 in 6.2 mi NW 9.2 mph - N/A   Partly Cloudy
6:00 AM 62.6 °F 48.2 °F 59% 29.92 in 6.2 mi NW 6.9 mph - N/A   Partly Cloudy
7:00 AM 64.4 °F 48.2 °F 56% 29.92 in 6.2 mi NW 10.4 mph - N/A   Partly Cloudy
8:00 AM 65 °F 47 °F 42% 29.95 in 6 mi NW 9.2 mph - -   Partly Cloudy
8:00 AM 66.2 °F 48.2 °F 52% 29.95 in 6.2 mi NW 9.2 mph - N/A   Scattered Clouds
9:00 AM 66.2 °F 46.4 °F 49% 29.95 in 6.2 mi NW 12.7 mph - N/A   Scattered Clouds
10:00 AM 69.8 °F 48.2 °F 46% 29.98 in 6.2 mi WNW 15.0 mph - N/A   Scattered Clouds
11:00 AM 68.0 °F 50.0 °F 52% 30.01 in 6.2 mi WNW 11.5 mph - N/A   Scattered Clouds
12:00 PM 69.8 °F 50.0 °F 49% 29.98 in 6.2 mi NW 11.5 mph - N/A   Scattered Clouds
1:00 PM 69.8 °F 51.8 °F 53% 29.98 in 6.2 mi NW 12.7 mph - N/A   Scattered Clouds
2:00 PM 70 °F 51 °F 41% 29.97 in 6 mi WNW 12.7 mph - -   Partly Cloudy
2:00 PM 69.8 °F 51.8 °F 53% 29.95 in 6.2 mi WNW 12.7 mph - N/A   Scattered Clouds
3:00 PM 69.8 °F 53.6 °F 56% 29.95 in 6.2 mi NW 11.5 mph - N/A   Scattered Clouds
4:00 PM 69.8 °F 53.6 °F 56% 29.95 in 6.2 mi NW 11.5 mph - N/A   Scattered Clouds
5:00 PM 68.0 °F 53.6 °F 60% 29.95 in 6.2 mi NW 11.5 mph - N/A   Scattered Clouds
6:00 PM 66.2 °F 55.4 °F 68% 29.95 in 6.2 mi NW 9.2 mph - N/A   Scattered Clouds
7:00 PM 64.4 °F 55.4 °F 73% 29.98 in 6.2 mi NNW 9.2 mph - N/A   Scattered Clouds
8:00 PM 64 °F 55 °F 64% 29.99 in 6 mi NNW 10.4 mph - -   Partly Cloudy
8:00 PM 64.4 °F 55.4 °F 73% 29.98 in 6.2 mi NNW 10.4 mph - N/A   Scattered Clouds
9:00 PM 62.6 °F 53.6 °F 72% 30.01 in 6.2 mi NW 6.9 mph - N/A   Scattered Clouds
10:00 PM 62.6 °F 53.6 °F 72% 30.01 in 6.2 mi NNW 8.1 mph - N/A   Scattered Clouds
11:00 PM 62.6 °F 53.6 °F 72% 30.04 in 6.2 mi NW 6.9 mph - N/A   Scattered Clouds